Wind_Speed
18 17 17 17 18 17 16 16 16 16 16 16 16 16 16 16 16 16 16 16 15 15 15 15 15 15 16 16 15 15 15 16 16 16 16 15 15 15 15 16 16 16 15
19 18 18 18 19 18 17 17 17 17 17 17 16 16 16 17 16 16 16 16 16 17 17 17 16 16 16 16 16 16 16 17 17 17 16 16 16 15 16 16 16 16 16
18 18 18 19 19 18 17 17 17 17 18 18 18 18 17 17 17 16 16 17 17 18 19 18 17 17 17 17 17 17 17 17 17 18 18 18 17 16 17 17 16 17 16
18 18 19 18 18 19 19 18 18 18 17 17 18 17 17 18 17 18 18 19 19 19 19 19 19 18 18 18 19 18 18 18 18 18 18 18 18 18 17 17 17 17 17
18 18 19 19 19 19 19 18 19 19 18 18 17 18 18 18 18 18 19 20 20 19 20 21 20 19 19 19 20 20 19 18 18 18 18 18 18 18 19 18 18 18 18
19 19 19 19 19 19 19 18 18 18 18 18 18 18 18 18 19 19 20 20 20 20 20 21 19 19 19 19 19 19 19 19 19 19 19 19 19 19 18 19 19 19 19
20 20 20 20 19 19 18 18 18 17 17 18 19 19 19 19 20 20 20 20 21 21 20 19 19 20 19 19 19 19 20 20 19 19 20 20 20 20 19 19 19 19 19
20 20 19 19 19 19 18 18 19 18 18 19 19 20 20 20 20 20 21 21 21 21 20 19 19 21 20 20 20 20 20 20 20 20 20 20 20 20 19 19 19 19 19
20 19 19 18 19 19 19 20 19 20 20 20 20 20 20 21 21 21 21 21 21 21 20 19 18 18 19 19 19 20 20 20 20 20 20 20 20 20 19 19 20 20 20
20 19 20 19 20 19 19 19 20 20 21 21 20 20 21 21 21 22 21 21 21 20 20 18 18 18 18 18 18 18 19 19 20 20 20 20 20 19 19 19 19 20 20
20 19 19 20 21 20 18 18 20 20 21 21 21 21 20 21 21 21 21 20 20 20 19 19 19 19 19 19 18 17 17 18 18 18 19 19 19 19 19 19 19 19 19
20 20 20 20 20 20 20 19 20 20 20 21 22 21 21 21 21 21 21 20 20 19 20 19 19 19 19 18 17 17 17 17 18 18 19 20 20 19 19 19 18 18 18
20 20 20 20 20 20 20 21 21 21 21 21 22 22 22 22 22 21 21 20 20 19 19 19 18 18 18 18 17 16 17 17 17 17 18 18 19 18 18 18 17 17 17
21 21 22 21 21 21 22 22 22 21 21 21 22 22 22 22 21 21 20 20 20 19 20 19 19 18 18 17 17 16 16 16 15 16 16 16 17 17 17 17 16 16 17
22 22 23 22 21 22 22 22 22 22 21 21 22 21 20 21 21 20 20 20 20 20 20 19 19 19 19 18 17 16 15 15 15 15 15 15 15 16 16 16 16 16 17
24 24 23 23 23 22 23 22 22 22 22 22 21 20 20 20 20 20 20 20 20 20 19 19 18 18 18 18 17 15 14 15 14 15 16 16 15 15 15 15 15 15 16
25 24 24 24 23 23 23 22 22 22 22 21 21 21 20 20 20 20 20 20 20 20 19 19 18 17 17 17 16 15 13 14 14 15 15 15 15 15 15 15 14 15 16
25 25 24 24 24 24 23 22 22 22 22 22 21 21 20 20 20 20 20 20 20 20 19 19 18 17 17 17 15 14 13 14 14 15 14 14 15 15 15 14 15 16 16
26 26 26 25 25 25 24 22 22 22 21 22 22 21 20 19 19 19 20 20 20 19 19 18 17 16 16 15 14 14 13 14 13 13 13 13 13 14 14 14 15 15 15
27 27 26 26 25 24 24 23 22 22 22 22 22 21 20 19 19 19 19 19 19 19 18 17 16 15 15 14 13 13 13 13 12 12 12 12 12 13 13 14 14 14 15
27 27 26 26 26 25 25 24 23 23 22 22 21 20 19 19 18 18 19 19 19 18 17 18 17 16 15 14 13 13 12 13 13 12 12 11 11 12 13 14 14 14 15
25 26 26 25 25 25 25 25 24 23 23 22 21 20 20 19 19 19 19 18 18 17 17 17 17 17 16 14 13 13 13 13 13 14 14 13 12 13 13 14 15 15 15
25 25 25 25 25 25 25 25 24 24 24 23 21 21 20 20 20 20 20 19 19 18 18 17 17 16 16 14 14 14 14 14 14 15 14 14 14 14 15 15 15 15 15
25 24 24 24 24 24 24 24 24 25 24 23 23 22 22 21 21 21 20 20 20 19 19 18 17 17 16 15 15 14 14 14 14 14 15 16 15 15 15 15 16 16 16
24 23 23 22 22 23 23 23 24 23 24 24 23 23 23 23 22 21 20 19 19 20 20 19 18 18 16 16 15 16 16 16 16 16 17 17 16 15 16 16 16 16 17
24 23 22 22 22 22 22 21 21 22 23 23 23 23 22 22 22 20 19 19 19 19 19 19 19 19 19 18 18 18 17 17 17 18 18 18 17 17 17 17 17 18 18
Wind_Direction
281 279 280 277 278 279 280 282 285 289 293 295 296 299 300 301 302 301 300 299 298 295 291 289 286 279 276 274 273 274 273 273 272 271 268 266 267 268 267 266 265 262 263
278 279 280 279 279 280 281 281 283 287 291 293 294 295 296 299 301 301 299 296 297 296 293 292 288 283 277 274 271 272 273 274 273 272 270 266 263 264 265 265 265 264 266
275 275 277 277 276 278 279 282 284 285 287 290 291 292 295 299 302 301 299 298 296 294 292 290 289 285 278 274 272 273 273 272 274 272 270 269 266 265 265 263 265 265 264
272 275 274 274 274 275 277 280 283 284 287 290 292 293 295 296 299 300 300 298 297 293 290 290 287 282 279 276 275 275 273 271 271 272 270 268 268 268 268 267 266 263 263
270 274 276 274 272 274 278 279 280 282 284 286 291 295 296 297 297 297 299 299 301 299 294 289 286 283 279 276 275 273 271 269 269 269 267 266 267 269 268 269 268 266 265
271 272 275 273 273 275 279 280 278 279 281 283 287 293 296 296 297 298 300 300 299 299 296 291 287 285 282 278 276 271 270 269 269 267 265 265 266 266 268 267 267 267 269
273 273 271 271 273 275 277 280 278 279 282 285 287 290 292 294 297 299 301 302 302 301 297 295 285 283 281 278 276 272 270 269 268 266 264 265 265 265 266 267 266 266 269
272 271 270 271 273 273 274 276 278 280 284 286 286 287 290 292 295 299 301 303 303 304 300 296 292 285 280 278 274 271 270 269 267 266 264 264 265 264 266 267 267 267 268
271 268 267 266 271 271 275 275 277 279 283 286 285 284 287 290 294 298 300 304 306 307 306 301 297 292 286 282 276 271 269 268 267 265 264 263 263 264 264 267 267 268 270
272 271 270 266 271 270 274 276 280 280 282 285 285 284 285 288 292 296 299 302 306 308 310 303 298 297 291 287 281 276 273 269 266 264 262 262 262 263 264 266 267 270 271
274 270 267 269 271 273 275 279 283 284 284 284 285 285 285 287 292 295 297 299 303 306 308 306 300 298 295 290 285 278 274 270 268 265 263 263 263 265 266 267 268 270 272
273 269 268 269 271 275 276 279 286 288 287 285 285 285 285 287 289 292 293 295 299 302 305 307 302 297 296 293 289 280 272 270 267 266 265 264 262 264 265 266 268 270 271
272 269 267 269 274 277 278 281 285 287 288 287 285 284 285 287 289 289 290 292 294 297 302 307 303 298 294 291 289 282 273 273 270 266 266 263 261 263 264 266 268 271 271
271 265 265 267 272 276 279 280 281 283 286 286 285 284 284 284 285 286 286 289 291 293 298 302 303 299 296 292 287 281 274 273 270 268 267 264 263 262 264 267 269 271 272
269 265 266 269 274 275 278 279 279 281 283 285 285 284 283 282 282 283 285 286 289 293 297 300 301 301 298 296 291 279 272 270 269 267 265 264 262 260 263 266 269 271 273
269 268 269 271 273 275 276 278 279 280 281 282 283 284 283 283 282 282 283 284 287 292 296 298 299 300 301 300 295 281 272 267 266 266 264 262 262 260 263 265 270 272 274
268 268 268 269 271 274 274 275 278 279 280 280 281 283 283 282 281 281 281 282 286 290 293 296 298 299 302 301 295 285 274 269 266 264 264 261 259 260 262 262 267 273 276
269 267 266 265 268 271 272 275 276 278 279 279 281 281 281 280 279 279 279 282 284 288 291 293 295 296 296 296 292 288 278 272 268 265 260 260 260 262 262 262 266 271 275
267 265 265 265 266 269 271 272 274 275 276 278 281 280 278 277 277 277 278 279 282 285 289 292 293 296 295 293 290 285 280 277 276 271 266 263 263 262 262 263 266 271 276
267 264 265 263 264 266 268 269 271 271 273 276 280 278 275 274 275 276 277 279 280 283 286 290 291 293 293 291 287 283 280 277 276 274 272 268 268 268 267 268 272 276 280
266 265 267 265 262 263 264 266 268 269 271 275 276 275 274 273 273 274 276 280 281 282 283 286 288 291 291 286 283 280 277 274 275 276 278 277 274 270 268 268 271 276 280
266 266 265 264 265 264 264 264 265 266 268 272 273 272 272 271 272 273 275 278 280 281 281 283 286 288 288 284 280 279 278 275 273 274 276 274 273 273 273 271 273 277 281
269 268 264 266 265 264 264 265 263 263 266 269 271 270 270 270 272 273 274 275 276 278 280 281 282 284 284 286 283 279 278 276 273 273 275 275 276 277 278 278 278 279 282
267 266 266 267 264 263 263 264 264 263 263 267 269 268 267 268 269 269 270 272 274 277 278 278 278 279 280 281 279 275 274 274 273 272 273 275 279 280 280 278 279 281 285
267 268 272 269 264 262 264 264 263 263 262 264 267 267 268 266 266 267 268 271 272 273 273 272 272 274 274 276 277 275 273 273 274 273 272 275 279 282 281 280 280 282 286
268 269 271 269 265 263 263 264 263 261 262 263 264 265 267 267 265 265 267 269 270 271 271 271 271 273 273 273 274 273 271 272 272 272 274 277 279 282 283 283 282 283 285
Height
5860 5861 5860 5860 5860 5860 5861 5861 5861 5861 5860 5859 5858 5857 5856 5855 5854 5853 5852 5850 5849 5848 5847 5846 5845 5845 5845 5845 5845 5845 5845 5845 5845 5845 5846 5846 5846 5847 5848 5848 5849 5849 5850
5857 5857 5857 5857 5857 5857 5858 5858 5858 5858 5857 5856 5855 5854 5853 5852 5851 5850 5849 5847 5846 5844 5843 5842 5842 5841 5841 5841 5841 5841 5841 5841 5841 5841 5841 5842 5843 5843 5844 5844 5845 5845 5846
5854 5853 5854 5853 5854 5854 5854 5855 5854 5854 5854 5853 5852 5851 5850 5849 5848 5847 5845 5844 5842 5841 5839 5838 5838 5837 5837 5836 5836 5836 5836 5836 5836 5836 5837 5837 5838 5838 5839 5840 5841 5841 5842
5849 5850 5850 5850 5850 5850 5850 5851 5851 5850 5850 5849 5849 5848 5847 5846 5845 5843 5842 5840 5838 5836 5835 5834 5833 5832 5832 5831 5831 5831 5831 5831 5831 5831 5831 5832 5833 5834 5835 5835 5836 5837 5837
5845 5846 5845 5846 5846 5846 5846 5847 5847 5846 5846 5846 5845 5844 5843 5842 5841 5839 5838 5836 5834 5832 5831 5829 5828 5827 5827 5826 5826 5826 5825 5826 5826 5826 5827 5827 5828 5829 5829 5830 5831 5832 5833
5841 5841 5841 5841 5841 5841 5842 5842 5843 5842 5842 5841 5841 5840 5840 5838 5837 5836 5834 5832 5829 5828 5826 5824 5823 5822 5821 5821 5820 5820 5820 5820 5820 5821 5822 5822 5823 5824 5824 5825 5826 5827 5828
5837 5837 5837 5837 5837 5837 5837 5837 5838 5838 5837 5837 5837 5837 5836 5835 5833 5831 5830 5827 5825 5823 5821 5819 5818 5817 5816 5815 5815 5815 5814 5814 5815 5815 5816 5817 5817 5818 5819 5820 5820 5822 5823
5832 5832 5832 5832 5832 5832 5832 5833 5833 5833 5833 5833 5833 5832 5831 5830 5829 5827 5825 5823 5821 5818 5816 5814 5813 5811 5810 5809 5809 5809 5808 5809 5809 5809 5810 5811 5812 5813 5814 5815 5815 5816 5818
5827 5826 5827 5827 5827 5827 5827 5827 5827 5828 5828 5828 5828 5828 5827 5825 5824 5823 5821 5819 5816 5814 5811 5809 5808 5806 5805 5803 5802 5802 5802 5802 5803 5803 5804 5805 5806 5807 5808 5809 5810 5812 5813
5822 5821 5822 5822 5822 5822 5822 5822 5823 5823 5823 5823 5823 5822 5822 5821 5819 5818 5816 5814 5812 5810 5807 5805 5803 5801 5799 5798 5796 5796 5796 5796 5797 5797 5798 5799 5800 5801 5803 5804 5805 5806 5807
5817 5817 5818 5818 5818 5818 5818 5818 5819 5818 5818 5817 5817 5817 5816 5815 5814 5813 5812 5810 5808 5806 5803 5801 5798 5796 5794 5792 5791 5790 5790 5790 5791 5791 5792 5793 5795 5796 5798 5799 5800 5801 5802
5813 5813 5813 5813 5813 5814 5814 5813 5814 5813 5813 5812 5812 5811 5811 5810 5809 5808 5807 5805 5804 5801 5799 5796 5794 5791 5789 5787 5786 5785 5785 5785 5785 5786 5787 5788 5790 5791 5792 5793 5794 5796 5797
5808 5808 5809 5809 5809 5810 5809 5809 5809 5808 5808 5807 5807 5806 5806 5805 5804 5803 5802 5801 5799 5797 5795 5792 5789 5787 5785 5783 5781 5780 5780 5780 5780 5781 5782 5783 5784 5786 5787 5788 5790 5790 5792
5803 5804 5804 5804 5804 5805 5805 5805 5804 5803 5802 5802 5801 5801 5800 5799 5799 5798 5797 5795 5794 5792 5790 5788 5785 5783 5780 5779 5777 5776 5775 5775 5775 5776 5777 5778 5780 5781 5783 5784 5785 5786 5787
5799 5799 5800 5799 5800 5800 5800 5799 5799 5798 5797 5797 5796 5795 5795 5794 5794 5793 5792 5791 5789 5787 5785 5783 5781 5778 5776 5774 5772 5771 5770 5771 5771 5772 5773 5774 5775 5777 5778 5780 5780 5781 5782
5793 5793 5794 5794 5794 5794 5794 5794 5793 5793 5792 5791 5790 5790 5789 5789 5788 5788 5787 5786 5784 5782 5780 5778 5776 5774 5771 5769 5767 5766 5766 5767 5768 5769 5769 5770 5771 5773 5774 5775 5776 5776 5777
5786 5787 5788 5788 5788 5788 5788 5788 5787 5787 5786 5786 5785 5785 5784 5783 5783 5782 5781 5780 5779 5778 5776 5774 5772 5770 5768 5766 5764 5763 5763 5763 5764 5765 5765 5766 5767 5768 5769 5770 5771 5772 5772
5780 5780 5781 5781 5782 5782 5782 5782 5781 5781 5781 5780 5780 5779 5779 5778 5777 5776 5776 5775 5774 5773 5771 5770 5768 5766 5765 5763 5761 5760 5760 5760 5761 5761 5761 5762 5763 5764 5765 5766 5767 5767 5767
5772 5773 5774 5775 5775 5775 5774 5776 5776 5775 5775 5774 5774 5773 5773 5772 5772 5771 5770 5770 5769 5768 5767 5765 5764 5762 5760 5759 5758 5757 5757 5757 5758 5758 5758 5759 5759 5760 5761 5762 5762 5763 5763
5765 5766 5766 5768 5768 5768 5769 5770 5770 5770 5769 5769 5768 5767 5767 5767 5766 5766 5765 5765 5764 5763 5762 5761 5760 5758 5757 5756 5755 5754 5754 5754 5755 5754 5755 5755 5756 5757 5757 5758 5758 5758 5758
5758 5758 5759 5760 5761 5762 5762 5763 5763 5763 5763 5763 5762 5762 5761 5761 5761 5761 5760 5759 5758 5758 5757 5756 5755 5754 5753 5752 5752 5751 5751 5751 5751 5751 5752 5752 5753 5753 5753 5754 5754 5754 5754
5751 5751 5752 5753 5754 5754 5755 5756 5756 5757 5757 5757 5756 5756 5756 5756 5755 5756 5755 5754 5753 5753 5752 5752 5751 5750 5749 5749 5748 5748 5748 5748 5748 5748 5748 5749 5749 5749 5749 5750 5750 5750 5750
5744 5744 5744 5745 5746 5747 5748 5749 5749 5749 5750 5750 5750 5750 5750 5750 5750 5750 5749 5749 5748 5748 5747 5747 5746 5746 5745 5745 5745 5744 5744 5744 5744 5744 5745 5745 5745 5745 5745 5746 5746 5746 5746
5737 5737 5737 5737 5739 5739 5741 5741 5742 5742 5743 5743 5744 5744 5744 5744 5744 5744 5743 5743 5743 5743 5742 5742 5742 5741 5741 5741 5741 5741 5740 5741 5740 5741 5741 5741 5741 5741 5741 5741 5742 5742 5742
5731 5731 5731 5731 5732 5733 5734 5734 5734 5734 5735 5736 5737 5737 5737 5737 5737 5737 5737 5737 5737 5737 5737 5737 5737 5737 5737 5737 5737 5736 5737 5737 5737 5737 5737 5737 5737 5737 5737 5737 5737 5737 5737
5725 5725 5725 5725 5726 5727 5727 5727 5727 5727 5728 5729 5729 5730 5730 5730 5730 5730 5731 5731 5731 5731 5731 5731 5731 5731 5732 5732 5732 5732 5732 5732 5732 5732 5733 5733 5733 5733 5732 5732 5732 5732 5732